Volver al catálogo

TITAN 3C TRANSTAGE DEB

ActivoHEO
NORAD 5991·DEBRIS·🇺🇸 United States

Lanzado Dec 21, 1965 desde Cape Canaveral Space Force Station

Loading…

Próximos Pases (próximas 24 horas)

TLE

ActualizadoSource: Space-Track

Época: Sep 14, 2026, 02:37 UTC

1 05991U 65108R   26257.10962883 -.00000048  00000-0  00000-0 0  9996
2 05991  27.4295 234.6341 6578920 269.1957 122.9650  2.63642563119760

Sigue TITAN 3C TRANSTAGE DEB en tiempo real con AllMySat

Download on the App Store